Weather History for Wheeling, WV

Change the Weather History Date:

Sunday, August 18, 2013

  Actual Average Record
Temperature  
Mean Temperature 66 °F 71 °F  
Max Temperature 71 °F 81 °F 87 °F (2002)
Min Temperature 61 °F 61 °F 55 °F (2007)
Degree Days  
Heating Degree Days 0 0  
Month to date heating degree days 14 0  
Since 1 June heating degree days 37 41  
Since 1 July heating degree days 16 3  
Cooling Degree Days 1    
Month to date cooling degree days 65  
Year to date cooling degree days 537  
Since 1 June cooling degree days 431  
Growing Degree Days 16 (Base 50)    
Moisture  
Dew Point 64 °F    
Average Humidity 87    
Maximum Humidity 100    
Minimum Humidity 73    
Precipitation  
Precipitation 0.16 in 0.13 in 0.84 in (1991)
Month to date precipitation 1.53 1.86  
Sea Level Pressure  
Sea Level Pressure 30.19 in    
Wind  
Wind Speed 2 mph (ESE)    
Max Wind Speed 8 mph    
Max Gust Speed 10 mph    
Visibility 6 miles    
Events Fog , Rain    
T = Trace of Precipitation, MM = Missing Value Source: NWS Daily Summary

Daily Weather History Graph

Daily Weather History Graph

Search for Another Location

Airport:

Trip Planner

Search our weather history database for the weather conditions in past years. The results will help you decide how hot, cold, wet, or windy it might be!

Date:

Astronomy

Aug. 18, 2013 Rise Set
Actual Time 6:36 AM EDT 8:15 PM EDT
Civil Twilight 6:08 AM EDT 8:43 PM EDT
Nautical Twilight 5:33 AM EDT 9:18 PM EDT
Astronomical Twilight 4:56 AM EDT 9:55 PM EDT
Moon 6:19 PM EDT (8/18) 3:44 AM EDT (8/18)
Length of Visible Light 14h 35m
Length of Day
13h 38m
Waxing Gibbous, 92% of the Moon is Illuminated
Aug 18
Waxing Gibbous
Aug 20
Full
Aug 28
Last Quarter
Sep 5
New
Sep 12
First Quarter

Hourly Weather History & Observations

Time (EDT) Temp. Dew Point Humidity Pressure Visibility Wind Dir Wind Speed Gust Speed Precip Events Conditions
12:53 AM 64.0 °F 55.9 °F 75% 30.19 in 10.0 mi East 6.9 mph - N/A   Clear
1:53 AM 64.0 °F 55.9 °F 75% 30.19 in 10.0 mi East 4.6 mph - N/A   Clear
2:53 AM 63.0 °F 57.0 °F 81% 30.19 in 10.0 mi ENE 3.5 mph - N/A   Overcast
3:53 AM 62.1 °F 57.9 °F 86% 30.18 in 10.0 mi East 5.8 mph - N/A   Overcast
4:53 AM 63.0 °F 57.9 °F 84% 30.18 in 10.0 mi Calm Calm - N/A   Overcast
5:53 AM 63.0 °F 57.9 °F 84% 30.19 in 10.0 mi ENE 3.5 mph - N/A   Overcast
6:53 AM 62.1 °F 59.0 °F 90% 30.21 in 5.0 mi SE 5.8 mph - 0.00 in Rain Light Rain
6:58 AM 60.8 °F 60.8 °F 100% 30.22 in 1.8 mi SE 4.6 mph - 0.03 in Rain Rain
7:07 AM 60.8 °F 60.8 °F 100% 30.22 in 3.0 mi Calm Calm - 0.03 in Rain Light Rain
7:53 AM 62.1 °F 61.0 °F 96% 30.22 in 5.0 mi Calm Calm - 0.03 in Rain Light Rain
8:53 AM 63.0 °F 62.1 °F 97% 30.23 in 9.0 mi Calm Calm - 0.01 in   Overcast
9:53 AM 64.0 °F 62.1 °F 93% 30.22 in 10.0 mi Calm Calm - N/A   Overcast
10:43 AM 64.4 °F 62.6 °F 94% 30.24 in 10.0 mi East 4.6 mph - N/A   Mostly Cloudy
10:53 AM 66.0 °F 63.0 °F 90% 30.23 in 10.0 mi East 3.5 mph - N/A   Mostly Cloudy
11:06 AM 66.2 °F 62.6 °F 88% 30.23 in 10.0 mi Variable 3.5 mph - N/A   Mostly Cloudy
11:22 AM 68.0 °F 62.6 °F 83% 30.23 in 10.0 mi ENE 3.5 mph - N/A   Scattered Clouds
11:53 AM 69.1 °F 64.0 °F 84% 30.22 in 10.0 mi South 5.8 mph - N/A   Mostly Cloudy
12:08 PM 69.8 °F 62.6 °F 78% 30.23 in 10.0 mi South 5.8 mph - N/A   Mostly Cloudy
12:53 PM 70.0 °F 63.0 °F 78% 30.22 in 10.0 mi SW 3.5 mph - N/A   Overcast
1:53 PM 71.1 °F 64.0 °F 78% 30.20 in 10.0 mi Calm Calm - N/A   Overcast
2:53 PM 70.0 °F 64.9 °F 84% 30.20 in 10.0 mi Calm Calm - N/A   Overcast
3:53 PM 69.1 °F 66.0 °F 90% 30.19 in 10.0 mi Calm Calm - 0.00 in Rain Light Rain
4:53 PM 68.0 °F 66.0 °F 93% 30.18 in 7.0 mi Calm Calm - 0.03 in Rain Light Rain
5:34 PM 68.0 °F 66.2 °F 94% 30.18 in 7.0 mi Calm Calm - 0.02 in Rain Light Rain
5:53 PM 66.9 °F 66.0 °F 97% 30.18 in 7.0 mi Calm Calm - 0.03 in Rain Light Rain
6:53 PM 66.9 °F 66.0 °F 97% 30.17 in 6.0 mi Calm Calm - 0.02 in Rain Light Rain
7:36 PM 66.2 °F 66.2 °F 100% 30.17 in 3.0 mi Calm Calm - 0.01 in Rain Light Rain
7:53 PM 66.9 °F 66.0 °F 97% 30.17 in 8.0 mi Calm Calm - 0.01 in Rain Light Rain
8:27 PM 66.2 °F 66.2 °F 100% 30.17 in 1.8 mi Calm Calm - 0.00 in Rain Light Rain
8:36 PM 66.2 °F 66.2 °F 100% 30.16 in 0.8 mi East 3.5 mph - 0.00 in   Partly Cloudy
8:46 PM 66.2 °F 66.2 °F 100% 30.16 in 1.2 mi ENE 3.5 mph - 0.00 in   Clear
8:49 PM 66.2 °F 66.2 °F 100% 30.16 in 3.0 mi ENE 3.5 mph - 0.00 in   Clear
8:53 PM 66.0 °F 64.9 °F 96% 30.16 in 6.0 mi ENE 4.6 mph - 0.00 in   Clear
9:41 PM 66.2 °F 64.4 °F 94% 30.18 in 2.5 mi Calm Calm - 0.00 in Rain Light Rain
9:53 PM 66.0 °F 66.0 °F 100% 30.18 in 1.2 mi Calm Calm - 0.00 in   Overcast
9:57 PM 66.2 °F 66.2 °F 100% 30.18 in 0.5 mi Calm Calm - N/A Fog Fog
10:11 PM 66.2 °F 66.2 °F 100% 30.18 in 1.0 mi Calm Calm - N/A   Overcast
10:20 PM 66.2 °F 66.2 °F 100% 30.18 in 0.8 mi Calm Calm - N/A   Overcast
10:26 PM 66.2 °F 66.2 °F 100% 30.18 in 0.5 mi Calm Calm - N/A Fog Fog
10:32 PM 66.2 °F 66.2 °F 100% 30.18 in 1.0 mi Calm Calm - N/A   Overcast
10:36 PM 66.2 °F 66.2 °F 100% 30.18 in 4.0 mi Calm Calm - 0.01 in   Overcast
10:53 PM 66.0 °F 66.0 °F 100% 30.17 in 2.5 mi Calm Calm - 0.01 in   Overcast
11:03 PM 66.2 °F 66.2 °F 100% 30.18 in 1.0 mi Calm Calm - N/A   Overcast
11:22 PM 66.2 °F 66.2 °F 100% 30.17 in 2.5 mi SE 3.5 mph - N/A   Overcast
11:30 PM 66.2 °F 66.2 °F 100% 30.18 in 1.0 mi SE 3.5 mph - 0.00 in Rain Light Rain
11:44 PM 66.2 °F 66.2 °F 100% 30.18 in 2.0 mi Calm Calm - 0.00 in Rain Light Rain
11:51 PM 66.2 °F 66.2 °F 100% 30.18 in 1.5 mi Calm Calm - 0.00 in Rain Light Rain
11:53 PM 66.0 °F 66.0 °F 100% 30.17 in 1.2 mi Calm Calm - 0.00 in Rain Light Rain